Location: Pedimozza
(42.0500°N, 9.3500°E)
Time: 05:53:57
(UTC+00:00)

Unknown - Pass Details

Date: 19 August 2019
Orbit: 548 x 551 km, 53.0° (Epoch: 21 September)

Event Time Altitude Azimuth Distance (km) Brightness Sun altitude
Rises 20:12:58 0° 304° (NW) 2,723 8.8 -19.6°
Reaches altitude 10° 20:15:14 10° 300° (WNW) 1,827 7.5 -19.9°
Maximum altitude 20:19:18 57° 222° (SW) 654 3.9 -20.5°
Enters shadow 20:19:57 50° 184° (S) 707 3.9 -20.6°
